Regional Weather Roundup
Issued by NWS

Home | Current Version | Previous Version | Text Only | Print | Product List | Glossary Off
Versions: 1 2 3 4 5 6 7 8 9 10 11 12 13 14 15 16 17 18 19 20 21 22 23 24 25 26 27 28 29 30 31 32 33 34 35 36 37 38 39 40 41 42 43 44 45 46 47 48 49 50

000
ASUS45 KSLC 211710
RWRUT

UTAH REGIONAL WEATHER ROUNDUP
NATIONAL WEATHER SERVICE SALT LAKE CITY UT
1100 AM MDT MON JUL 21 2014

UTZ001>011-023>025-211800-

NORTHERN UTAH

CITY           SKY/WX    TMP DP  RH WIND       PRES   REMARKS
HILL AFB       SUNNY     83  39  21 S13       30.14R
LOGAN          SUNNY     79  50  36 CALM      30.10R
OGDEN          SUNNY     83  40  21 SW6       30.11S
PROVO AIRPORT  NOT AVBL
SALT LAKE CITY MOSUNNY   87  35  15 S17G26    30.08S
VERNAL         SUNNY     77  32  19 SE5       30.20F
WENDOVER       SUNNY     82  46  28 E8        30.10R
HEBER CITY     SUNNY     82  34  17 SW13G18   30.21S
WEST JORDAN    SUNNY     88  48  25 SE20      30.13S

$$

UTZ012>022-026-027-211800-

SOUTHERN UTAH

CITY           SKY/WX    TMP DP  RH WIND       PRES   REMARKS
BRYCE CANYON   SUNNY     74  27  17 S15G23    30.41S
CEDAR CITY     SUNNY     81  31  16 SW20G29   30.25S
MILFORD        SUNNY     83  37  19 S16       30.19F
MOAB/CYNLANDS  SUNNY     89  32  13 W3        30.14S
PRICE          SUNNY     81  36  19 MISG      30.24S
ST GEORGE      SUNNY     90  43  19 NW9       30.09F
KANAB            N/A     82  36  18 S9G17     30.27F

$$

REGIONAL REPORTS     COLORADO/ARIZONA

CITY           SKY/WX    TMP DP  RH WIND       PRES   REMARKS
CRAIG, CO      SUNNY     82  46  28 VRB5      30.26S
GRAND JUNCTION MOSUNNY   82  45  27 SE6       30.19S
RIFLE          MOSUNNY   80  48  32 N5        30.24S
MONTROSE       PTSUNNY   80  48  32 NW7       30.27S
CORTEZ         SUNNY     84  32  15 W10       30.30S
PAGE, AZ       SUNNY     87  33  14 N8        30.18F
GRAND CANYON   SUNNY     77  36  22 SW14G24   30.38S
KINGMAN        SUNNY     88  38  17 SW16G24   30.15R
FLAGSTAFF      SUNNY     75  38  26 W12G21    30.40S

$$

REGIONAL REPORTS    NEVADA/IDAHO/WYOMING

CITY           SKY/WX    TMP DP  RH WIND       PRES   REMARKS
LAS VEGAS, NV  SUNNY     92  44  19 S15       29.99R
ELY            SUNNY     78  36  21 SW22G30   30.24R
ELKO           SUNNY     74  49  41 SW15      30.17S
POCATELLO, ID  MOSUNNY   80  50  34 SW17      30.11S
BURLEY         SUNNY     77  56  48 W9        30.08S
EVANSTON, WY   SUNNY     72  42  34 SW16G23   30.31R
ROCK SPRINGS   SUNNY     79  34  19 W13       30.26S

$$


USA.gov is the U.S. government's official web portal to all federal, state and local government web resources and services.